RH
12 12 12 12 11 10 9 8 6 6 6 6 8 8 8 8 8 10 12 15 16 14 16 14 10 10 10 10 11 12 11 11 11 11 12 12 12 12 12 12 14 16 14 12 12
14 14 13 12 11 10 8 6 6 6 6 8 8 7 8 9 10 10 12 17 20 18 18 18 16 11 10 10 10 10 11 11 11 12 14 16 16 14 15 16 16 16 17 16 16
15 15 14 12 11 9 7 7 7 8 9 8 8 8 9 10 12 17 14 18 21 21 18 17 17 16 14 13 12 11 11 11 12 13 14 15 16 16 16 16 15 15 14 15 17
16 15 13 12 10 8 7 7 8 10 10 9 8 9 8 10 14 16 19 21 23 22 18 16 15 14 13 12 11 11 10 10 9 9 9 9 8 8 7 6 7 7 7 8 8
16 13 12 11 9 8 7 6 10 11 11 9 9 7 8 8 10 14 17 20 20 16 15 15 15 15 14 13 13 12 12 11 10 10 10 10 12 13 12 9 10 10 10 10 12
14 13 12 10 9 8 6 8 11 12 10 10 6 7 9 8 8 9 10 12 12 18 21 21 22 22 20 20 20 19 19 18 17 16 14 11 10 10 10 9 7 6 7 9 11
14 12 10 9 8 6 6 11 12 12 12 10 6 9 9 8 8 9 11 12 14 21 26 29 26 25 24 23 23 21 20 20 19 18 16 13 9 10 8 7 6 7 7 9 12
12 9 9 8 7 6 8 13 12 13 14 9 6 10 8 8 8 8 10 12 17 27 34 31 22 20 26 25 24 22 21 20 18 16 14 11 8 8 8 7 6 6 6 8 12
10 9 8 7 8 9 12 13 10 14 16 9 8 10 9 10 8 9 11 18 28 32 31 28 21 16 18 22 20 18 17 15 13 12 10 8 6 6 6 6 5 5 6 6 9
10 9 9 10 11 11 13 12 11 16 18 11 10 10 11 11 10 11 16 23 26 26 27 23 17 15 14 15 16 15 13 12 10 9 9 8 8 8 8 8 8 7 7 7 7
10 10 12 14 12 11 12 12 13 18 19 15 10 12 13 12 11 12 14 17 20 21 19 18 16 14 14 14 15 14 13 12 11 11 11 11 10 10 8 8 9 8 8 9 8
12 13 16 15 12 10 12 14 16 19 20 14 11 13 13 13 12 12 13 14 14 14 14 15 14 14 14 14 15 15 14 14 13 14 12 12 12 12 13 19 19 16 13 15 20
15 16 19 16 13 10 10 15 16 19 21 16 10 13 14 14 13 13 13 14 14 15 15 14 14 14 14 16 16 17 17 15 15 15 15 16 18 20 23 26 26 26 26 27 29
17 19 18 15 13 11 10 12 18 19 21 21 12 11 14 15 14 15 15 15 16 16 16 15 15 16 16 16 17 18 17 16 16 16 16 20 19 26 27 28 30 33 27 24 26
21 20 18 16 14 11 10 10 13 20 22 20 17 12 13 16 16 16 16 16 17 16 16 16 15 16 16 17 18 18 18 18 18 18 18 24 23 26 27 24 26 34 39 41 34
24 23 20 18 15 12 10 9 9 18 23 21 20 17 14 15 16 17 17 17 16 16 16 16 15 16 18 18 18 19 20 22 21 20 19 26 27 23 25 25 32 42 43 42 46
27 25 23 20 18 14 11 10 11 14 17 17 18 19 19 16 15 16 17 16 15 15 15 15 16 17 19 20 21 25 26 26 22 26 25 27 26 29 30 31 37 45 49 50 48
27 25 24 21 17 15 13 12 11 13 17 19 19 20 20 20 17 16 14 13 14 15 15 15 16 18 22 23 26 28 30 39 35 32 29 34 30 32 33 35 36 44 48 49 50
31 30 26 21 17 15 15 15 14 14 14 15 16 16 17 17 16 16 15 15 16 16 17 18 19 22 24 26 27 29 35 40 40 35 32 32 33 34 40 42 47 48 49 50 47
33 32 29 23 19 18 17 18 17 18 18 18 18 18 18 18 18 18 18 19 20 21 22 22 22 22 24 26 30 37 40 42 42 40 36 38 40 42 43 45 50 57 55 52 52
36 32 31 28 24 21 21 21 22 23 24 24 24 24 24 24 23 24 23 23 22 22 22 22 23 24 28 33 39 41 42 42 41 40 38 37 36 41 45 59 67 68 68 61 55
31 29 27 28 28 26 24 23 24 26 27 28 27 28 29 30 30 32 33 32 30 29 30 32 34 34 34 37 40 40 37 34 34 36 40 46 43 55 68 72 73 74 70 66 61
28 27 28 28 31 32 30 29 28 27 27 26 27 28 28 30 29 30 32 33 34 35 35 34 32 32 32 33 31 31 34 39 53 64 65 82 65 82 83 78 74 74 70 62 58
29 28 30 32 32 32 35 34 33 32 31 30 28 28 27 26 26 26 27 28 29 29 29 30 29 30 30 32 35 43 56 66 71 69 81 70 84 92 88 77 70 59 58 55 52
46 37 28 26 29 31 32 34 35 34 33 32 29 31 33 33 33 32 31 32 33 35 36 38 38 40 43 51 60 68 74 86 90 91 97 79 91 91 80 72 65 60 56 56 56
72 88 81 60 32 35 34 32 33 40 41 46 57 70 78 76 80 77 77 75 74 75 80 81 76 74 68 78 86 76 86 94 94 95 83 72 59 62 64 57 49 47 46 43 48
86 91 91 90 84 65 72 73 64 72 86 83 84 82 88 88 84 87 86 85 89 86 92 90 90 87 65 68 63 45 48 47 45 43 38 29 23 20 20 26 26 26 28 45 61
Wind_Speed
11 10 9 10 11 13 14 15 16 16 16 16 15 15 15 16 17 18 19 18 16 16 15 16 17 18 18 18 18 19 19 20 19 19 20 21 22 23 22 23 23 23 25 25 25
13 12 11 12 13 15 16 16 16 16 15 15 16 14 15 15 15 16 16 17 17 16 17 16 17 18 18 19 20 20 20 20 21 20 20 22 22 21 21 21 22 23 25 26 26
14 13 14 14 15 15 16 16 15 15 14 16 14 14 14 14 15 15 14 14 16 16 17 16 16 16 17 18 19 20 21 22 22 21 21 21 21 21 22 24 23 25 25 27 28
15 16 15 16 16 17 17 15 14 14 15 15 13 11 13 14 13 13 14 14 14 14 15 15 14 14 15 16 17 18 20 22 22 21 21 22 23 24 25 23 23 25 27 29 31
18 17 17 17 18 18 16 15 14 14 14 13 11 11 13 14 14 15 13 13 14 14 13 13 12 11 11 11 11 10 11 11 12 13 14 16 15 15 17 16 16 18 20 22 24
18 19 19 19 19 18 16 14 14 13 13 10 9 10 14 15 15 15 14 14 14 11 9 8 7 6 6 6 6 6 6 6 7 8 9 12 10 11 13 14 15 17 19 21 23
19 20 21 19 18 17 15 14 15 13 11 10 10 11 14 14 15 14 12 11 10 8 5 3 3 3 3 3 4 4 4 4 5 7 9 14 12 14 16 17 18 19 20 22 24
20 19 18 17 17 16 15 15 16 13 12 11 10 11 11 12 13 11 10 8 6 4 4 5 6 5 5 5 6 5 7 7 9 10 14 15 18 17 19 20 21 21 20 21 23
19 19 17 16 15 15 15 16 16 14 12 11 10 9 9 10 10 9 7 5 4 5 7 8 9 9 8 8 9 9 10 12 12 15 17 18 20 20 21 21 23 23 24 23 23
18 18 16 14 14 14 15 16 15 14 13 12 10 9 8 8 9 8 6 5 6 8 9 10 12 11 11 12 11 12 13 14 14 15 17 20 22 22 24 24 24 25 26 26 25
18 16 15 14 15 16 16 16 15 16 15 14 12 10 9 9 10 9 9 8 9 10 11 12 13 13 14 15 15 15 16 15 17 18 16 19 21 23 24 24 24 25 26 27 27
17 15 15 15 16 16 16 15 15 16 15 15 14 13 12 10 10 9 9 9 10 11 12 14 15 16 17 17 18 19 19 19 19 21 19 21 22 21 20 22 24 26 28 27 28
16 16 16 16 17 17 16 15 15 17 17 17 17 16 15 14 12 11 11 11 11 12 14 15 15 17 19 20 21 22 23 23 23 23 22 23 17 21 22 23 25 26 27 26 25
16 16 16 17 18 18 18 17 17 18 18 18 19 19 18 18 17 16 16 15 16 16 18 18 19 20 21 23 25 26 27 28 27 27 26 23 23 23 25 24 27 28 27 26 25
17 16 17 18 19 19 19 19 19 19 20 20 20 21 22 21 21 21 21 22 21 21 22 22 23 23 24 26 27 29 31 31 31 30 30 26 28 26 29 31 31 31 30 30 29
18 19 19 19 20 20 20 20 20 21 22 21 21 22 23 25 25 25 26 26 26 26 26 27 26 27 27 29 30 31 33 34 34 35 34 34 33 30 33 34 34 36 33 32 33
21 21 22 22 22 22 21 20 21 21 23 23 24 24 25 27 29 29 28 28 31 31 30 31 30 30 31 31 32 33 35 37 40 38 39 38 40 35 39 37 38 40 38 36 36
22 23 24 24 24 24 22 21 21 21 22 24 25 26 26 28 29 31 32 32 32 34 34 34 32 32 33 33 35 35 36 37 44 43 44 42 44 44 42 41 43 44 41 38 36
24 24 24 24 24 25 25 24 23 22 23 24 25 27 27 29 32 33 33 33 33 34 36 37 37 36 35 36 36 38 39 41 44 46 48 48 47 47 48 49 50 49 43 40 37
26 25 25 25 25 27 27 27 27 26 26 26 27 29 29 30 32 34 35 33 35 35 37 39 42 39 37 38 39 41 43 45 46 51 54 52 53 54 54 56 55 51 46 43 42
29 28 28 27 27 28 29 30 30 30 31 30 29 32 31 32 33 35 36 34 35 36 37 39 42 43 43 42 43 45 47 48 50 54 57 60 60 59 59 59 58 53 49 48 47
29 29 30 30 30 31 32 34 34 34 35 36 35 36 36 37 37 37 37 37 39 40 41 42 48 48 49 48 48 50 51 52 55 57 60 62 63 63 61 59 54 52 53 53 53
29 30 30 32 33 33 34 36 37 37 37 39 40 41 41 42 44 43 42 42 45 46 48 49 52 54 55 54 55 57 57 58 59 62 65 64 63 62 60 57 54 55 57 59 58
31 32 32 34 35 37 38 39 41 41 41 42 44 44 45 45 46 51 49 50 50 52 54 56 58 58 59 58 60 62 62 64 67 71 67 64 58 55 56 59 61 62 61 62 63
33 35 36 37 38 39 40 42 42 43 44 45 46 46 47 49 49 52 54 56 56 57 57 59 62 63 62 63 64 66 69 71 73 68 68 60 63 62 65 64 63 64 64 63 63
42 43 43 42 41 42 41 41 42 42 43 44 44 46 50 54 56 58 59 60 62 61 64 66 68 69 68 69 71 70 70 69 64 63 66 65 66 64 63 65 66 64 63 64 63
41 43 42 42 44 45 45 47 47 47 49 51 54 57 57 56 57 58 58 57 58 59 60 61 62 64 64 65 67 69 67 66 66 65 65 66 65 67 64 60 62 63 62 58 57
Wind_Direction
212 223 239 256 272 283 291 298 303 305 307 305 308 307 306 304 302 296 284 285 283 277 276 270 264 262 263 266 265 264 269 273 276 277 276 274 274 273 271 269 269 268 266 265 265
225 238 252 262 272 281 289 296 301 303 304 303 303 301 304 308 311 319 307 288 283 282 279 277 271 266 266 265 266 266 269 272 277 280 279 278 276 275 274 272 265 266 270 271 268
236 246 255 263 269 279 289 296 301 305 301 298 294 300 307 314 315 316 315 303 292 288 284 278 275 272 270 268 268 269 269 271 275 276 277 277 276 278 276 271 274 274 274 273 271
243 251 257 263 272 282 288 294 299 300 298 294 292 300 312 316 319 320 318 312 302 296 292 286 278 272 269 268 268 269 269 270 272 272 273 275 275 276 274 279 278 275 273 271 270
251 257 262 270 277 281 287 291 293 292 296 288 289 303 314 315 315 312 312 308 299 293 290 287 279 273 268 267 269 274 276 272 271 274 275 274 279 283 289 293 291 288 286 284 280
261 267 273 277 278 279 283 279 288 286 291 278 289 306 316 315 313 308 300 297 295 293 289 282 276 273 276 284 284 281 273 276 277 275 280 281 287 292 295 301 302 298 292 286 281
267 272 273 275 275 278 274 275 284 279 279 281 290 305 314 314 313 307 299 296 294 289 286 299 298 297 299 288 280 275 266 283 284 294 295 295 299 301 301 301 306 306 302 296 291
267 267 270 272 273 273 266 277 278 267 271 279 283 304 311 315 315 308 298 290 285 275 273 289 296 287 269 271 274 274 280 284 286 288 287 287 289 290 293 298 301 303 302 300 296
267 268 267 269 274 271 267 280 273 261 268 275 280 294 302 315 315 308 298 279 268 276 280 282 287 285 270 266 270 278 281 280 278 281 284 288 289 291 294 300 301 301 300 301 301
268 269 267 271 275 277 277 282 270 259 261 266 270 275 291 303 303 294 284 270 276 276 277 285 290 289 283 279 278 279 277 283 284 286 293 296 299 302 303 302 302 301 300 300 302
266 264 261 271 279 278 279 278 264 255 261 262 260 264 275 289 288 290 284 277 280 285 283 283 286 284 287 286 287 286 286 286 288 291 295 297 301 302 305 309 311 308 305 304 302
263 260 261 270 279 281 276 275 259 256 260 259 253 259 267 275 280 283 280 280 288 290 292 290 289 287 290 287 287 288 289 290 291 294 298 304 306 305 307 313 314 311 307 305 303
262 260 263 270 278 281 276 270 263 258 256 257 254 256 261 265 269 272 269 276 281 287 293 296 294 289 287 287 288 289 290 293 295 297 305 306 301 301 305 312 314 310 308 308 305
264 263 267 272 277 280 279 274 266 262 258 260 260 257 259 262 262 265 268 272 276 284 287 293 293 294 293 291 289 289 291 294 296 299 303 305 301 303 300 304 311 313 307 305 300
264 265 269 273 278 279 279 277 269 265 264 263 264 262 260 262 262 264 271 273 276 281 285 290 288 290 292 291 291 291 292 294 296 298 298 298 297 295 297 301 306 313 308 302 298
261 265 269 273 277 280 280 277 273 268 264 264 264 264 263 262 260 265 268 272 274 279 282 283 282 285 288 290 291 292 293 295 295 295 295 297 297 299 301 305 308 313 308 304 303
262 267 271 274 276 278 280 280 277 272 271 268 268 267 265 265 266 268 268 269 276 278 280 280 280 283 285 287 289 291 293 296 295 297 297 299 296 301 302 302 306 311 307 302 300
268 271 273 275 274 275 276 278 280 279 274 273 273 273 272 271 269 269 271 273 276 278 280 279 277 280 282 284 287 288 292 296 297 299 298 299 299 302 301 303 304 308 303 298 295
271 273 274 274 273 274 275 277 279 278 277 276 276 274 272 271 272 272 273 275 277 279 280 282 281 281 281 283 285 289 290 292 294 293 293 295 298 298 305 306 306 304 298 294 293
272 273 274 274 273 273 274 276 278 278 279 278 278 277 275 274 274 275 276 279 278 279 279 280 281 281 283 284 286 286 289 292 293 293 295 298 297 299 303 303 305 300 294 295 293
275 275 275 276 274 273 273 274 276 279 279 281 281 281 280 280 280 280 281 281 279 279 278 280 280 283 283 284 284 286 287 289 290 291 294 295 296 299 301 303 300 296 294 293 292
278 277 275 275 275 275 276 275 275 276 278 279 279 279 280 280 281 281 284 284 283 281 281 281 283 284 285 286 287 287 288 287 288 291 291 291 294 296 300 297 293 291 293 293 293
278 278 276 276 275 274 275 277 277 277 277 278 279 279 279 279 281 280 281 280 280 281 282 281 281 283 286 287 287 288 289 290 290 290 289 294 295 296 295 292 290 291 290 289 289
282 282 280 279 278 278 277 277 278 277 277 277 278 279 280 280 280 282 281 281 281 281 281 281 282 284 284 287 288 289 290 290 290 288 293 292 293 289 286 286 289 289 289 289 288
284 286 285 284 282 281 281 281 281 281 281 281 281 281 284 284 283 282 284 284 284 283 283 283 283 284 284 285 286 286 287 288 286 290 288 290 287 286 285 286 285 285 284 282 281
284 287 285 285 283 283 284 284 282 282 283 283 283 286 287 285 284 284 283 284 285 286 285 285 285 284 285 285 285 286 285 283 287 284 282 284 283 283 282 281 282 281 279 278 278
278 282 284 284 280 279 282 283 283 283 286 285 288 287 289 288 287 287 287 287 286 286 286 285 286 286 287 286 287 287 288 286 284 284 284 283 282 282 282 279 277 277 277 277 277